[[{"header":{"parameterUnit":"m.s-1","parameterCategory":1,"la1":30.2991,"la2":30.254,"lo1":-89.0895,"lo2":-89.0444,"dy":0.0017,"dx":0.0017,"nx":28,"ny":28,"refTime":"2025-04-13T09:00:00:Z","depth":0,"parameterNumber":2,"parameterNumberName":"U-component_of_WINDS"},"data":[0,0,0,0,0,0,0,0,0,0,0,0,0,0,0,0,0,0,0,0,0,0,0,0,0,0,0,0,0,0,0,0,0,0,0,0,0,0,0,0,0,0,0,0,0,0,0,0,0,0,0,0,0,0,0,0,0,0,-0.8122,-0.8122,0,-0.8077,-0.8076,-0.8076,-0.8075,-0.8075,-0.8076,-0.8076,-0.8031,-0.8029,-0.8027,0,0,0,0,0,0,0,0,0,0,0,0,0,-0.821,-0.8208,-0.8122,-0.8122,-0.8121,-0.8077,-0.8076,-0.8076,-0.8075,-0.8075,-0.8076,-0.8077,-0.8031,-0.8029,-0.8027,0,0,0,0,0,0,0,0,0,0,0,0,0,-0.8169,-0.8208,-0.8123,-0.8115,-0.8114,-0.8077,-0.8076,-0.8075,-0.8074,-0.8075,-0.8076,-0.8077,-0.8032,-0.8029,-0.8027,-0.7994,0,0,-0.8019,-0.8018,0,0,0,0,0,0,0,0,-0.8171,-0.8166,-0.8117,-0.8116,-0.8115,-0.8082,-0.809,-0.8048,-0.8074,-0.809,-0.8076,-0.8077,-0.8047,-0.8043,-0.8033,-0.7991,-0.7989,-0.8018,-0.8017,-0.8016,-0.8015,0,0,0,0,0,0,0,-0.8174,-0.8168,-0.8104,-0.8116,-0.8115,-0.8115,-0.811,-0.8082,-0.8064,-0.8088,-0.8088,-0.8083,-0.8047,-0.8035,-0.8032,-0.7989,-0.8018,-0.8016,-0.8015,-0.8014,-0.7917,-0.7916,0,0,0,0,0,0,-0.8178,-0.817,-0.8106,-0.8103,-0.8145,-0.8113,-0.8107,-0.8092,-0.8065,-0.8061,-0.8082,-0.8083,-0.8039,-0.8035,-0.803,-0.7989,-0.8016,-0.8013,-0.8012,-0.7918,-0.7917,-0.7916,0,0,0,0,0,0,-0.818,-0.8172,-0.8108,-0.8136,-0.8128,-0.811,-0.8093,-0.809,-0.8079,-0.806,-0.8057,-0.8074,-0.804,-0.8034,-0.8002,-0.7987,-0.8012,-0.801,-0.7919,-0.7918,-0.7916,-0.7906,0,0,0,0,0,0,-0.8183,-0.8173,-0.816,-0.8136,-0.8127,-0.808,-0.8092,-0.8089,-0.8075,-0.8075,-0.8051,-0.8048,-0.804,-0.8006,-0.8,-0.7984,-0.8008,-0.792,-0.7918,-0.7917,-0.7908,-0.7905,-0.7902,0,0,0,0,0,-0.8186,-0.816,-0.816,-0.8152,-0.811,-0.808,-0.8074,-0.8065,-0.8073,-0.806,-0.8048,-0.8049,-0.799,-0.8003,-0.7996,-0.7979,-0.7921,-0.7919,-0.7917,-0.7909,-0.7905,-0.7902,0,0,0,0,0,0,-0.8183,-0.8156,-0.8156,-0.8121,-0.8103,-0.8079,-0.8063,-0.8062,-0.8041,-0.8042,-0.8032,-0.8027,-0.7995,-0.7984,-0.7999,-0.7945,-0.7957,-0.7953,-0.7953,-0.7949,-0.7947,-0.795,-0.8005,0,0,0,0,0,-0.8178,-0.8155,-0.8134,-0.8105,-0.8096,-0.8081,-0.8067,-0.8062,-0.8042,-0.8035,-0.802,-0.8001,-0.7978,-0.7963,-0.7941,-0.7907,-0.7901,-0.7891,-0.7888,-0.7886,-0.7883,-0.7862,-0.7858,-0.7908,-0.7908,-0.7908,0,0,-0.8169,-0.8151,-0.8138,-0.8104,-0.8089,-0.8066,-0.8074,-0.8049,-0.8032,-0.8031,-0.8,-0.7988,-0.7967,-0.7933,-0.7918,-0.7923,-0.7867,-0.7883,-0.7881,-0.7879,-0.786,-0.7855,-0.7851,-0.7907,-0.7907,-0.7907,0,0,-0.8139,-0.8124,-0.8098,-0.8082,-0.8059,-0.8049,-0.8043,-0.8019,-0.8012,-0.798,-0.7979,-0.7958,-0.7919,-0.7904,-0.7891,-0.7854,-0.7854,-0.7847,-0.7831,-0.7812,-0.7808,-0.7804,-0.779,-0.7786,-0.7844,-0.7844,-0.7844,0,-0.813,-0.8094,-0.8085,-0.8059,-0.8044,-0.8042,-0.8016,-0.8001,-0.7972,-0.7962,-0.7969,-0.7919,-0.7905,-0.7867,-0.7858,-0.7848,-0.784,-0.785,-0.7809,-0.7805,-0.7802,-0.7789,-0.7784,-0.7843,-0.7844,-0.7844,-0.7844,0,-0.8083,-0.8059,-0.8041,-0.8012,-0.7995,-0.7969,-0.7956,-0.7941,-0.7937,-0.7926,-0.7894,-0.7876,-0.785,-0.7841,-0.7838,-0.7803,-0.7807,-0.7811,-0.7822,-0.7797,-0.7784,-0.7779,-0.7842,-0.7843,-0.7843,-0.7843,0,0,-0.8051,-0.8016,-0.801,-0.7996,-0.797,-0.7951,-0.7925,-0.7899,-0.7886,-0.7866,-0.7843,-0.781,-0.7814,-0.7799,-0.7794,-0.7777,-0.7748,-0.7784,-0.7783,-0.7777,-0.7708,-0.7704,-0.7698,-0.7748,-0.7747,-0.7747,-0.7709,0,-0.8017,-0.7971,-0.7961,-0.7921,-0.7897,-0.7895,-0.7872,-0.7854,-0.7843,-0.7822,-0.7811,-0.7787,-0.7794,-0.7785,-0.7768,-0.7755,-0.7734,-0.7758,-0.7727,-0.7726,-0.7732,-0.7692,-0.7688,-0.7653,-0.7704,-0.7703,-0.7703,0,-0.7972,-0.795,-0.7907,-0.7883,-0.7873,-0.7853,-0.7828,-0.7808,-0.7787,-0.778,-0.7763,-0.7759,-0.7732,-0.7745,-0.7708,-0.7724,-0.7711,-0.7703,-0.7702,-0.7698,-0.7712,-0.7686,-0.7642,-0.7637,-0.7695,-0.7696,-0.7696,0,-0.7952,-0.7911,-0.788,-0.7869,-0.784,-0.7826,-0.7813,-0.7793,-0.7778,-0.7756,-0.7746,-0.7722,-0.7709,-0.769,-0.768,-0.769,-0.7643,-0.7655,-0.7636,-0.7636,-0.7626,-0.7626,-0.7578,-0.7619,-0.7619,-0.7619,-0.7619,0,-0.7915,-0.7889,-0.787,-0.7851,-0.7821,-0.7811,-0.7781,-0.7769,-0.7751,-0.773,-0.7726,-0.7706,-0.7694,-0.7672,-0.7664,-0.7634,-0.7628,-0.7622,-0.762,-0.7622,-0.7622,-0.7613,-0.7614,-0.7617,-0.7618,-0.7618,-0.7618,0,-0.7887,-0.7874,-0.7839,-0.7814,-0.7808,-0.7787,-0.7766,-0.7747,-0.7736,-0.7709,-0.7702,-0.7685,-0.7659,-0.7647,-0.7615,-0.761,-0.7575,-0.7575,-0.7582,-0.7581,-0.7562,-0.7564,-0.7506,-0.7497,-0.7544,-0.7544,-0.7543,0,-0.7864,-0.7843,-0.7816,-0.7801,-0.7788,-0.7764,-0.7748,-0.7737,-0.772,-0.7694,-0.7679,-0.7652,-0.7631,-0.7589,-0.7574,-0.755,-0.7549,-0.753,-0.7545,-0.7547,-0.7547,-0.7548,-0.7546,-0.7527,-0.7527,-0.7526,-0.7526,0,-0.7825,-0.7819,-0.7796,-0.777,-0.775,-0.773,-0.771,-0.7698,-0.7683,-0.7665,-0.7638,-0.7621,-0.7588,-0.7562,-0.7536,-0.7523,-0.7522,-0.7521,-0.7516,-0.7517,-0.7521,-0.7518,-0.7573,-0.7523,-0.7523,-0.7523,-0.7523,-0.7524,-0.7798,-0.7779,-0.7757,-0.7731,-0.7714,-0.7695,-0.7676,-0.7662,-0.7639,-0.7611,-0.7606,-0.7577,-0.7556,-0.7521,-0.7507,-0.7485,-0.7489,-0.7481,-0.7479,-0.7477,-0.7475,-0.7525,-0.748,-0.748,-0.748,-0.748,-0.748,0,-0.7758,-0.7743,-0.7719,-0.769,-0.767,-0.767,-0.7647,-0.763,-0.7604,-0.7584,-0.7563,-0.7531,-0.7506,-0.7488,-0.7462,-0.7447,-0.7446,-0.7441,-0.7442,-0.7439,-0.7473,-0.748,-0.7442,-0.7442,-0.7442,-0.7442,-0.7442,-0.7442,-0.7735,-0.7702,-0.7694,-0.7653,-0.7638,-0.7609,-0.7596,-0.7578,-0.7562,-0.7527,-0.7505,-0.7494,-0.7475,-0.7448,-0.7424,-0.742,-0.741,-0.7404,-0.74,-0.7432,-0.7436,-0.744,-0.7447,-0.7403,-0.7402,-0.7367,-0.7367,-0.7367]},{"header":{"parameterUnit":"m.s-1","parameterCategory":1,"la1":30.2991,"la2":30.254,"lo1":-89.0895,"lo2":-89.0444,"dy":0.0017,"dx":0.0017,"nx":28,"ny":28,"refTime":"2025-04-13T09:00:00:Z","depth":0,"parameterNumber":3,"parameterNumberName":"V-component_of_WINDS"},"data":[0,0,0,0,0,0,0,0,0,0,0,0,0,0,0,0,0,0,0,0,0,0,0,0,0,0,0,0,0,0,0,0,0,0,0,0,0,0,0,0,0,0,0,0,0,0,0,0,0,0,0,0,0,0,0,0,0,0,4.3169,4.317,0,4.3184,4.3184,4.3185,4.3135,4.3134,4.3132,4.3131,4.3144,4.3146,4.3148,0,0,0,0,0,0,0,0,0,0,0,0,0,4.3096,4.3098,4.3169,4.317,4.317,4.3184,4.3184,4.3185,4.3135,4.3134,4.3132,4.313,4.3144,4.3146,4.3148,0,0,0,0,0,0,0,0,0,0,0,0,0,4.3121,4.3098,4.3169,4.3147,4.3145,4.3184,4.3184,4.3185,4.3136,4.3134,4.3131,4.3129,4.3143,4.3146,4.3148,4.3209,0,0,4.3156,4.3157,0,0,0,0,0,0,0,0,4.312,4.3124,4.315,4.3149,4.3147,4.3156,4.3163,4.3193,4.3136,4.3139,4.3131,4.3128,4.315,4.3152,4.3159,4.3209,4.321,4.3156,4.3158,4.3159,4.316,0,0,0,0,0,0,0,4.3118,4.3123,4.3175,4.3151,4.3148,4.3135,4.3137,4.3169,4.3157,4.3139,4.3135,4.3138,4.3148,4.3157,4.3159,4.321,4.3156,4.3159,4.316,4.3161,4.331,4.3312,0,0,0,0,0,0,4.312,4.3122,4.3175,4.3176,4.3127,4.3139,4.314,4.3155,4.3156,4.3154,4.314,4.3136,4.3153,4.3156,4.3159,4.323,4.3159,4.3161,4.3163,4.3308,4.3311,4.3313,0,0,0,0,0,0,4.3118,4.3125,4.3174,4.3148,4.3153,4.3142,4.316,4.3156,4.3165,4.3157,4.3154,4.3151,4.3152,4.3156,4.3197,4.323,4.3163,4.3165,4.3305,4.3309,4.3312,4.3372,0,0,0,0,0,0,4.3116,4.3125,4.3148,4.3149,4.3155,4.3212,4.3162,4.3158,4.317,4.3164,4.3167,4.3165,4.315,4.3193,4.3199,4.3232,4.3167,4.3302,4.3306,4.3311,4.3367,4.3377,4.3386,0,0,0,0,0,4.3114,4.3164,4.315,4.3156,4.3184,4.3214,4.3217,4.32,4.3173,4.3196,4.3191,4.3165,4.3225,4.3198,4.3204,4.3238,4.33,4.3305,4.331,4.3363,4.3375,4.3386,0,0,0,0,0,0,4.3168,4.3164,4.3148,4.32,4.3208,4.3206,4.3234,4.3214,4.3229,4.3224,4.3201,4.3202,4.3247,4.3247,4.3216,4.3297,4.3258,4.3265,4.3295,4.3307,4.3316,4.3315,4.3169,0,0,0,0,0,4.3186,4.3211,4.3206,4.3253,4.3258,4.3246,4.3258,4.3244,4.3251,4.3254,4.3252,4.3259,4.3279,4.3293,4.3312,4.3367,4.3366,4.3394,4.3403,4.3411,4.3417,4.3445,4.3457,4.3331,4.3331,4.3331,0,0,4.3223,4.3224,4.3241,4.3264,4.3268,4.3294,4.3249,4.3278,4.3297,4.3258,4.3297,4.3295,4.3302,4.335,4.3371,4.3351,4.3452,4.3418,4.3424,4.3426,4.3452,4.3464,4.3475,4.3334,4.3334,4.3333,0,0,4.3304,4.3308,4.3347,4.3352,4.336,4.3351,4.336,4.3361,4.3359,4.3398,4.3369,4.339,4.3426,4.3432,4.3439,4.3522,4.3499,4.3529,4.3578,4.3606,4.3616,4.3625,4.3654,4.3664,4.3535,4.3535,4.3535,0,4.3349,4.3388,4.3369,4.3401,4.3411,4.3377,4.3416,4.3422,4.3435,4.3442,4.342,4.3464,4.3466,4.3515,4.3535,4.3542,4.3552,4.3528,4.3616,4.3625,4.3633,4.366,4.3671,4.3539,4.3538,4.3538,4.3538,0,4.3443,4.347,4.3501,4.3514,4.3528,4.3563,4.3548,4.3564,4.3549,4.3543,4.3582,4.3583,4.3601,4.3611,4.3597,4.3658,4.3645,4.362,4.358,4.3649,4.3674,4.3684,4.3544,4.3543,4.3542,4.3541,0,0,4.3559,4.3561,4.3573,4.3578,4.3583,4.3604,4.3637,4.3654,4.3668,4.3678,4.3704,4.3735,4.3712,4.372,4.3706,4.3731,4.3795,4.3702,4.3702,4.3719,4.3862,4.3881,4.3893,4.378,4.3782,4.3784,4.3861,0,4.3638,4.3695,4.3679,4.3736,4.376,4.3728,4.3757,4.3763,4.3757,4.3777,4.377,4.3793,4.376,4.3765,4.3788,4.3783,4.3824,4.3777,4.3804,4.3805,4.3803,4.3906,4.3926,4.4,4.3871,4.3873,4.3874,0,4.3738,4.3752,4.3812,4.3812,4.3822,4.3848,4.3863,4.3882,4.3887,4.3882,4.3891,4.3872,4.3903,4.3864,4.3906,4.3875,4.3885,4.3884,4.3886,4.3887,4.3843,4.391,4.4023,4.4034,4.3889,4.3888,4.3887,0,4.3816,4.385,4.3889,4.3895,4.3897,4.3916,4.3917,4.3921,4.3932,4.3945,4.3952,4.3968,4.3977,4.3989,4.3974,4.3947,4.4019,4.3978,4.4014,4.4015,4.4031,4.403,4.4146,4.4038,4.4038,4.4038,4.4038,0,4.3906,4.3944,4.3924,4.3949,4.3989,4.397,4.401,4.4008,4.4011,4.4034,4.4007,4.4029,4.4008,4.4028,4.4016,4.4053,4.4057,4.4053,4.4049,4.4055,4.4056,4.4061,4.4055,4.4041,4.404,4.4039,4.4039,0,4.4,4.3989,4.4029,4.4028,4.4028,4.4058,4.4056,4.4078,4.4071,4.41,4.4106,4.4094,4.4116,4.4102,4.4124,4.4116,4.4164,4.4154,4.4162,4.4159,4.4196,4.4193,4.432,4.4335,4.4218,4.4219,4.422,0,4.4058,4.4086,4.4087,4.4101,4.4104,4.4126,4.4138,4.4119,4.4132,4.4141,4.4161,4.4181,4.4196,4.4232,4.4225,4.4241,4.4231,4.4274,4.4233,4.4238,4.4231,4.4229,4.4231,4.4282,4.4284,4.4285,4.4286,0,4.4162,4.4155,4.4173,4.4189,4.4204,4.4215,4.4224,4.4237,4.4218,4.4234,4.4256,4.4267,4.429,4.4309,4.4323,4.4323,4.4302,4.4299,4.4308,4.4314,4.4318,4.4315,4.4184,4.4296,4.4295,4.4294,4.4293,4.4293,4.424,4.4263,4.4267,4.4287,4.4292,4.4302,4.4322,4.4317,4.4335,4.4352,4.434,4.4366,4.437,4.4386,4.439,4.4409,4.4392,4.4405,4.4409,4.4412,4.4417,4.4315,4.4412,4.4412,4.4411,4.4411,4.4411,0,4.4342,4.4343,4.4362,4.4376,4.4392,4.437,4.4379,4.4394,4.4417,4.4423,4.4437,4.4462,4.4481,4.4476,4.4492,4.4509,4.4499,4.4514,4.4512,4.4512,4.4432,4.4422,4.4521,4.4521,4.4521,4.4521,4.4521,4.4521,4.4397,4.4435,4.4428,4.4467,4.4468,4.4493,4.45,4.4508,4.4513,4.4542,4.4557,4.4553,4.4555,4.4571,4.4587,4.4584,4.4592,4.461,4.4604,4.4529,4.4518,4.4508,4.4498,4.4612,4.4612,4.4683,4.4683,4.4684]}]]